Rbgn^[z[y[W
メイン
   新天体発見情報
     Comet C/2023 Q2 (PANSTARRS)
投稿するにはまず登録を

フラット表示 前のトピック | 次のトピック
投稿者 スレッド
佐藤裕久
投稿日時: 2023-11-7 0:13
モデレータ
登録日: 2005-6-12
居住地: 日本
投稿: 2485
オンライン
Comet C/2023 Q2 (PANSTARRS)

R. Weryk (西オンタリオ大学,物理および天文学科)の通報によると、8月23日、Haleakalaにある
Pan-STARRS2 1.8-m Ritchey-Chretien反射望遠鏡で得た画像から彗星を発見した。
最後の2つは、Pan-STARRS1 1.8-m Ritchey-Chretien反射望遠鏡で得られたものである。
Werykの書き込みによると、9月9.24日、3.6-m Canada-France-Hawaii望遠鏡 (CFHT)で得た4枚の
60秒gri-バンドフォローアップ画像から、この天体は明らかに彗星で、0".5のシーイングの最良
の画像は、0".7 (半値全幅:FWHM)の非常に集光した頭部が見え、p.a. 65-120°に3"の広がった
尾が見える。10月13.2日、4枚の追加60秒CFHT露出では、1".0のシーイングでは、1".1 (FWHM)の
非常に集光した頭部が見え、p.a. 30-100にわたる10" 以上の広い尾が見える。
小惑星センターのPCCP webpageに公表後、佐藤英貴氏(東京都文京区、9月6.2日UT, 60-秒露出
24枚のスタック, 0.51-m f/6.8 アストログラフ, Utah Desert Remote 天文台, Beryl Junction
近郊, ユタ州, 米国, 遠隔操作:恒星状に見えるだけである。4".9の円形範囲で測定した光度は
20.2等であった)と観測した。

発見位置は次のとおり、

     2023 UT             R.A. (2000) Decl.       Mag.
     Aug. 23.25322   18 15 42.95   +51 55 52.0   21.1
          23.26593   18 15 42.14   +51 55 37.0   21.1
          23.27863   18 15 41.33   +51 55 21.9   21.6
          23.29131   18 15 40.49   +51 55 06.7   21.1
          23.38223   18 15 34.58   +51 53 18.1   20.8
          23.38305   18 15 34.53   +51 53 17.1   21.1

MPCの楕円軌道要素、位置推算表は次のとおり、

Orbital elements:
    C/2023 Q2 (PANSTARRS)                                                       
Epoch 2023 Sept. 13.0 TT = JDT 2460200.5                                        
T 2024 June 24.10809 TT                                 Rudenko                 
q   3.2093420            (2000.0)            P               Q                  
z  +0.0029628      Peri.  171.72941     +0.08122358     -0.23331460             
 +/-0.0000097      Node    92.68339     -0.96095077     +0.23970154             
e   0.9904914      Incl.  104.05411     -0.26453042     -0.94239454             
From 121 observations 2023 July 6-Oct. 29, mean residual 0".4.                  
                                                                                
Ephemeris:
Date    TT    R. A. (2000) Decl.     Delta      r    Elong.  Phase   m1
2023 09 30    17 57 55.7 +38 12 21   4.0050  4.0708    86.6    14.2  20.6
...
2023 10 15    18 00 21.8 +32 49 49   4.0653  3.9892    78.6    14.2  20.6
...
2023 10 23    18 03 09.6 +30 08 00   4.1052  3.9467    73.9    14.0  20.5
...
2023 10 29    18 05 48.6 +28 12 28   4.1371  3.9153    70.3    13.8  20.5
2023 10 30    18 06 17.6 +27 53 43   4.1425  3.9101    69.7    13.8  20.5
2023 10 31    18 06 47.2 +27 35 08   4.1479  3.9050    69.1    13.7  20.5
...
2023 11 06    18 09 58.1 +25 46 50   4.1804  3.8742    65.4    13.5  20.5
...
2023 11 14    18 14 44.2 +23 31 22   4.2228  3.8339    60.5    13.0  20.5
...
2023 11 29    18 24 55.8 +19 45 37   4.2927  3.7606    51.6    11.9  20.4

(MPEC 2023-U285、CBET 5307)

フラット表示 前のトピック | 次のトピック

題名 投稿者 日時
 » Comet C/2023 Q2 (PANSTARRS) 佐藤裕久 2023-11-7 0:13

投稿するにはまず登録を
 
© 1999 Tsutomu Seki.